| time (UTC) | temp F | wind direction | speed MPH | gust MPH | rain 1hr in | rain 24hr in | rain mn in | humidity % | barometer mb |
| 20260507052332 | 43 | 351 | 2.0 | 4.0 | 0.00 | 0.00 | 0.00 | 94 | 1013.5 |
| 20260507051832 | 42 | 348 | 2.0 | 4.0 | 0.00 | 0.00 | 0.00 | 93 | 1013.5 |
| 20260507051332 | 42 | 344 | 2.0 | 4.0 | 0.00 | 0.00 | 0.00 | 93 | 1013.4 |
| 20260507050832 | 42 | 1 | 2.0 | 4.0 | 0.00 | 0.00 | 0.00 | 93 | 1013.3 |
| 20260507050331 | 42 | 11 | 1.0 | 4.0 | 0.00 | 0.00 | 0.00 | 93 | 1013.2 |
| 20260507045831 | 41 | 1 | 1.0 | 4.0 | 0.00 | 0.00 | 0.00 | 93 | 1013.1 |
| 20260507045331 | 41 | 336 | 2.0 | 4.0 | 0.00 | 0.00 | 0.00 | 93 | 1013.1 |
| 20260507044833 | 41 | 1 | 2.0 | 4.0 | 0.00 | 0.00 | 0.00 | 93 | 1013.0 |
| 20260507044332 | 41 | 35 | 2.0 | 4.0 | 0.00 | 0.00 | 0.00 | 93 | 1013.0 |
| 20260507043832 | 40 | 35 | 2.0 | 4.0 | 0.00 | 0.00 | 0.00 | 93 | 1013.0 |
| 20260507043332 | 40 | 72 | 2.0 | 4.0 | 0.00 | 0.00 | 0.00 | 93 | 1012.9 |
| 20260507042833 | 40 | 59 | 1.0 | 4.0 | 0.00 | 0.00 | 0.00 | 93 | 1012.9 |
| 20260507042332 | 40 | 331 | 2.0 | 4.0 | 0.00 | 0.00 | 0.00 | 92 | 1012.9 |
| 20260507041831 | 39 | 321 | 1.0 | 4.0 | 0.00 | 0.00 | 0.00 | 92 | 1012.8 |
| 20260507041332 | 39 | 327 | 1.0 | 3.0 | 0.00 | 0.00 | 0.00 | 92 | 1012.8 |
| 20260507040832 | 39 | 1 | 1.0 | 3.0 | 0.00 | 0.00 | 0.00 | 92 | 1012.8 |
| 20260507040335 | 39 | 331 | 1.0 | 3.0 | 0.00 | 0.00 | 0.00 | 91 | 1012.8 |
| 20260507035829 | 39 | 336 | 1.0 | 2.0 | 0.00 | 0.00 | 0.00 | 91 | 1012.7 |
| 20260507034829 | 39 | 324 | 2.0 | 4.0 | 0.00 | 0.00 | 0.00 | 91 | 1012.6 |
| 20260507034325 | 39 | 340 | 2.0 | 4.0 | 0.00 | 0.00 | 0.00 | 91 | 1012.6 |
| 20260507033824 | 39 | 324 | 2.0 | 4.0 | 0.00 | 0.00 | 0.00 | 90 | 1012.6 |
| 20260507032821 | 39 | 327 | 2.0 | 4.0 | 0.00 | 0.00 | 0.00 | 90 | 1012.5 |
| 20260507032319 | 40 | 314 | 2.0 | 5.0 | 0.00 | 0.00 | 0.00 | 90 | 1012.6 |
| 20260507031819 | 40 | 349 | 2.0 | 5.0 | 0.00 | 0.00 | 0.00 | 90 | 1012.5 |
| 20260507030813 | 40 | 331 | 2.0 | 6.0 | 0.00 | 0.00 | 0.00 | 90 | 1012.5 |
| 20260507030313 | 40 | 13 | 1.0 | 4.0 | 0.00 | 0.00 | 0.00 | 90 | 1012.4 |
| 20260507025807 | 41 | 20 | 1.0 | 4.0 | 0.00 | 0.00 | 0.00 | 90 | 1012.4 |
| 20260507025307 | 41 | 89 | 1.0 | 4.0 | 0.00 | 0.00 | 0.00 | 89 | 1012.4 |
| 20260507024807 | 41 | 1 | 1.0 | 4.0 | 0.00 | 0.00 | 0.00 | 89 | 1012.5 |
| 20260507024306 | 41 | 336 | 1.0 | 4.0 | 0.00 | 0.00 | 0.00 | 89 | 1012.4 |
| 20260507023304 | 41 | 327 | 2.0 | 4.0 | 0.00 | 0.00 | 0.00 | 89 | 1012.4 |
| 20260507022800 | 41 | 340 | 2.0 | 4.0 | 0.00 | 0.00 | 0.00 | 89 | 1012.4 |
| 20260507022300 | 42 | 20 | 2.0 | 4.0 | 0.00 | 0.00 | 0.00 | 89 | 1012.4 |
| 20260507021801 | 42 | 321 | 2.0 | 5.0 | 0.00 | 0.00 | 0.00 | 88 | 1012.4 |
| 20260507021257 | 42 | 349 | 2.0 | 5.0 | 0.00 | 0.00 | 0.00 | 89 | 1012.3 |
| 20260507020757 | 42 | 25 | 2.0 | 4.0 | 0.00 | 0.00 | 0.00 | 89 | 1012.2 |
| 20260507020259 | 42 | 20 | 2.0 | 5.0 | 0.00 | 0.00 | 0.00 | 89 | 1012.1 |
| 20260507015755 | 42 | 20 | 2.0 | 7.0 | 0.00 | 0.00 | 0.00 | 89 | 1012.2 |
| 20260507014255 | 42 | 336 | 3.0 | 7.0 | 0.00 | 0.00 | 0.00 | 89 | 1012.1 |
| 20260507013753 | 42 | 49 | 2.0 | 4.0 | 0.00 | 0.00 | 0.00 | 89 | 1012.1 |
| 20260507013253 | 42 | 340 | 2.0 | 4.0 | 0.00 | 0.00 | 0.00 | 89 | 1012.1 |
| 20260507012751 | 42 | 323 | 2.0 | 5.0 | 0.00 | 0.00 | 0.00 | 89 | 1012.1 |
| 20260507011751 | 42 | 11 | 2.0 | 5.0 | 0.00 | 0.00 | 0.00 | 89 | 1012.0 |
| 20260507011250 | 42 | 350 | 2.0 | 5.0 | 0.00 | 0.00 | 0.00 | 89 | 1012.1 |
| 20260507010749 | 42 | 1 | 2.0 | 5.0 | 0.00 | 0.00 | 0.00 | 89 | 1012.0 |
| 20260507010255 | 42 | 1 | 2.0 | 5.0 | 0.00 | 0.00 | 0.00 | 89 | 1012.0 |
| 20260507005747 | 42 | 347 | 2.0 | 5.0 | 0.00 | 0.00 | 0.00 | 89 | 1012.0 |
| 20260507005247 | 42 | 1 | 2.0 | 5.0 | 0.00 | 0.00 | 0.00 | 89 | 1012.0 |
| 20260507004747 | 42 | 1 | 2.0 | 4.0 | 0.00 | 0.00 | 0.00 | 89 | 1012.0 |
| 20260507004246 | 42 | 331 | 3.0 | 6.0 | 0.00 | 0.00 | 0.00 | 89 | 1011.9 |
| 20260507003745 | 42 | 1 | 3.0 | 6.0 | 0.00 | 0.00 | 0.00 | 89 | 1011.9 |
| 20260507003245 | 42 | 342 | 3.0 | 6.0 | 0.00 | 0.00 | 0.00 | 89 | 1011.9 |
| 20260507002740 | 42 | 9 | 3.0 | 6.0 | 0.00 | 0.00 | 0.00 | 89 | 1011.8 |
| 20260507001746 | 42 | 327 | 2.0 | 4.0 | 0.00 | 0.00 | 0.00 | 89 | 1011.8 |
| 20260507001237 | 42 | 349 | 2.0 | 5.0 | 0.00 | 0.00 | 0.00 | 89 | 1011.8 |
| 20260507000739 | 42 | 319 | 2.0 | 5.0 | 0.00 | 0.00 | 0.00 | 89 | 1011.8 |
| 20260507000237 | 42 | 9 | 2.0 | 5.0 | 0.00 | 0.00 | 0.00 | 89 | 1011.8 |
| 20260506235235 | 42 | 1 | 2.0 | 4.0 | 0.00 | 0.00 | 0.00 | 89 | 1011.8 |
| 20260506234229 | 42 | 28 | 2.0 | 5.0 | 0.00 | 0.00 | 0.00 | 89 | 1011.8 |
| 20260506233731 | 42 | 37 | 2.0 | 5.0 | 0.00 | 0.00 | 0.00 | 89 | 1011.8 |
| 20260506233231 | 42 | 321 | 2.0 | 5.0 | 0.00 | 0.00 | 0.00 | 89 | 1011.7 |
| 20260506232727 | 42 | 32 | 2.0 | 6.0 | 0.00 | 0.00 | 0.00 | 89 | 1011.7 |
| 20260506232228 | 42 | 325 | 2.0 | 6.0 | 0.00 | 0.00 | 0.00 | 89 | 1011.8 |
| 20260506231728 | 42 | 1 | 2.0 | 5.0 | 0.00 | 0.00 | 0.00 | 89 | 1011.7 |
| 20260506231227 | 42 | 41 | 2.0 | 5.0 | 0.00 | 0.00 | 0.00 | 89 | 1011.7 |
| 20260506230725 | 42 | 334 | 2.0 | 5.0 | 0.00 | 0.00 | 0.00 | 89 | 1011.8 |
| 20260506230225 | 42 | 344 | 2.0 | 5.0 | 0.00 | 0.00 | 0.00 | 89 | 1011.6 |
| 20260506225221 | 42 | 1 | 2.0 | 3.0 | 0.00 | 0.00 | 0.00 | 89 | 1011.7 |
| 20260506224222 | 42 | 353 | 2.0 | 3.0 | 0.00 | 0.00 | 0.00 | 88 | 1011.8 |
| 20260506223720 | 43 | 1 | 2.0 | 4.0 | 0.00 | 0.00 | 0.00 | 88 | 1011.7 |
| 20260506223219 | 43 | 324 | 2.0 | 4.0 | 0.00 | 0.00 | 0.00 | 88 | 1011.7 |
| 20260506222705 | 43 | 28 | 2.0 | 4.0 | 0.00 | 0.00 | 0.00 | 88 | 1011.7 |
| 20260506222205 | 43 | 25 | 1.0 | 4.0 | 0.00 | 0.00 | 0.00 | 87 | 1011.7 |
| 20260506221702 | 44 | 344 | 2.0 | 4.0 | 0.00 | 0.00 | 0.00 | 87 | 1011.6 |
| 20260506221200 | 44 | 28 | 2.0 | 5.0 | 0.00 | 0.00 | 0.00 | 87 | 1011.6 |
| 20260506220700 | 44 | 1 | 2.0 | 5.0 | 0.00 | 0.00 | 0.00 | 87 | 1011.7 |
| 20260506220201 | 44 | 303 | 2.0 | 5.0 | 0.00 | 0.00 | 0.00 | 87 | 1011.6 |
| 20260506215659 | 44 | 40 | 2.0 | 5.0 | 0.00 | 0.00 | 0.00 | 86 | 1011.6 |
| 20260506215201 | 44 | 46 | 2.0 | 5.0 | 0.00 | 0.00 | 0.00 | 86 | 1011.6 |
| 20260506213656 | 45 | 20 | 3.0 | 5.0 | 0.00 | 0.00 | 0.00 | 86 | 1011.5 |
| 20260506213154 | 45 | 1 | 3.0 | 6.0 | 0.00 | 0.00 | 0.00 | 85 | 1011.5 |
| 20260506212653 | 45 | 1 | 2.0 | 8.0 | 0.00 | 0.00 | 0.00 | 85 | 1011.5 |
| 20260506212153 | 45 | 1 | 2.0 | 8.0 | 0.00 | 0.00 | 0.00 | 85 | 1011.5 |
| 20260506211151 | 45 | 353 | 3.0 | 6.0 | 0.00 | 0.00 | 0.00 | 84 | 1011.5 |
| 20260506210650 | 45 | 35 | 3.0 | 6.0 | 0.00 | 0.00 | 0.00 | 84 | 1011.4 |
| 20260506210150 | 46 | 353 | 3.0 | 6.0 | 0.00 | 0.00 | 0.00 | 84 | 1011.4 |
| 20260506205649 | 46 | 178 | 3.0 | 5.0 | 0.00 | 0.00 | 0.00 | 83 | 1011.4 |
| 20260506205149 | 46 | 338 | 3.0 | 7.0 | 0.00 | 0.00 | 0.00 | 83 | 1011.4 |
| 20260506204647 | 46 | 344 | 3.0 | 7.0 | 0.00 | 0.00 | 0.00 | 83 | 1011.4 |
| 20260506203647 | 46 | 13 | 3.0 | 5.0 | 0.00 | 0.00 | 0.00 | 83 | 1011.4 |
| 20260506203145 | 47 | 340 | 3.0 | 5.0 | 0.00 | 0.00 | 0.00 | 82 | 1011.3 |
| 20260506202145 | 47 | 25 | 3.0 | 6.0 | 0.00 | 0.00 | 0.00 | 81 | 1011.3 |
| 20260506201644 | 47 | 334 | 3.0 | 8.0 | 0.00 | 0.00 | 0.00 | 81 | 1011.2 |
| 20260506201143 | 47 | 335 | 3.0 | 8.0 | 0.00 | 0.00 | 0.00 | 80 | 1011.3 |
| 20260506200643 | 47 | 11 | 4.0 | 8.0 | 0.00 | 0.00 | 0.00 | 80 | 1011.1 |
| 20260506200141 | 48 | 46 | 4.0 | 9.0 | 0.00 | 0.00 | 0.00 | 79 | 1011.1 |
| 20260506195640 | 48 | 1 | 4.0 | 9.0 | 0.00 | 0.00 | 0.00 | 79 | 1011.0 |
| 20260506195141 | 48 | 346 | 3.0 | 9.0 | 0.00 | 0.00 | 0.00 | 79 | 1011.1 |
| 20260506194639 | 48 | 337 | 3.0 | 9.0 | 0.00 | 0.00 | 0.00 | 78 | 1010.9 |
| 20260506194139 | 48 | 20 | 4.0 | 9.0 | 0.00 | 0.00 | 0.00 | 78 | 1011.0 |
| 20260506193638 | 49 | 334 | 4.0 | 8.0 | 0.00 | 0.00 | 0.00 | 77 | 1010.8 |
| 20260506193137 | 49 | 23 | 4.0 | 8.0 | 0.00 | 0.00 | 0.00 | 76 | 1010.9 |
| 20260506192637 | 49 | 345 | 4.0 | 9.0 | 0.00 | 0.00 | 0.00 | 76 | 1010.9 |
| 20260506192136 | 49 | 15 | 4.0 | 10.0 | 0.00 | 0.00 | 0.00 | 76 | 1010.7 |
| 20260506191634 | 49 | 354 | 4.0 | 10.0 | 0.00 | 0.00 | 0.00 | 76 | 1010.8 |
| 20260506191135 | 50 | 39 | 4.0 | 10.0 | 0.00 | 0.00 | 0.00 | 76 | 1010.8 |
| 20260506190144 | 50 | 23 | 5.0 | 10.0 | 0.00 | 0.00 | 0.00 | 75 | 1010.6 |
| 20260506185636 | 50 | 347 | 5.0 | 10.0 | 0.00 | 0.00 | 0.00 | 75 | 1010.5 |
| 20260506185134 | 50 | 350 | 5.0 | 10.0 | 0.00 | 0.00 | 0.00 | 75 | 1010.5 |
| 20260506184133 | 51 | 63 | 5.0 | 11.0 | 0.00 | 0.00 | 0.00 | 75 | 1010.4 |
| 20260506183633 | 51 | 325 | 4.0 | 11.0 | 0.00 | 0.00 | 0.00 | 75 | 1010.3 |
| 20260506183128 | 51 | 329 | 4.0 | 11.0 | 0.00 | 0.00 | 0.00 | 75 | 1010.3 |
| 20260506182629 | 51 | 314 | 4.0 | 9.0 | 0.00 | 0.00 | 0.00 | 74 | 1010.2 |
| 20260506182129 | 52 | 353 | 4.0 | 9.0 | 0.00 | 0.00 | 0.00 | 74 | 1010.1 |
| 20260506181622 | 52 | 28 | 4.0 | 9.0 | 0.00 | 0.00 | 0.00 | 73 | 1010.0 |
| 20260506181124 | 52 | 23 | 3.0 | 7.0 | 0.00 | 0.00 | 0.00 | 73 | 1010.0 |
| 20260506180119 | 53 | 25 | 3.0 | 10.0 | 0.00 | 0.00 | 0.00 | 72 | 1009.8 |
| 20260506173110 | 54 | 354 | 3.0 | 12.0 | 0.00 | 0.00 | 0.00 | 71 | 1009.6 |
| 20260506172108 | 54 | 314 | 2.0 | 6.0 | 0.00 | 0.00 | 0.00 | 73 | 1009.5 |
| 20260506171608 | 53 | 117 | 2.0 | 6.0 | 0.00 | 0.00 | 0.00 | 73 | 1009.4 |
| 20260506171107 | 53 | 135 | 1.0 | 5.0 | 0.00 | 0.00 | 0.00 | 73 | 1009.6 |
| 20260506170620 | 53 | 145 | 1.0 | 5.0 | 0.00 | 0.00 | 0.00 | 72 | 1009.5 |
| 20260506165600 | 53 | 108 | 2.0 | 5.0 | 0.00 | 0.00 | 0.00 | 72 | 1009.5 |
| 20260506164600 | 53 | 112 | 3.0 | 7.0 | 0.00 | 0.00 | 0.00 | 72 | 1009.4 |
| 20260506164058 | 53 | 126 | 1.0 | 6.0 | 0.00 | 0.00 | 0.00 | 72 | 1009.4 |
| 20260506163556 | 53 | 46 | 1.0 | 4.0 | 0.00 | 0.00 | 0.00 | 71 | 1009.4 |
| 20260506163056 | 53 | 46 | 1.0 | 4.0 | 0.00 | 0.00 | 0.00 | 70 | 1009.4 |
| 20260506161552 | 53 | 150 | 2.0 | 5.0 | 0.00 | 0.00 | 0.00 | 71 | 1009.4 |
| 20260506160548 | 53 | 152 | 3.0 | 6.0 | 0.00 | 0.00 | 0.00 | 70 | 1009.4 |
| 20260506160059 | 54 | 132 | 2.0 | 5.0 | 0.00 | 0.00 | 0.00 | 69 | 1009.4 |
| 20260506155547 | 54 | 197 | 2.0 | 4.0 | 0.00 | 0.00 | 0.00 | 70 | 1009.4 |
| 20260506154549 | 54 | 110 | 2.0 | 5.0 | 0.00 | 0.00 | 0.00 | 70 | 1009.4 |
| 20260506154048 | 54 | 127 | 3.0 | 7.0 | 0.00 | 0.00 | 0.00 | 72 | 1009.4 |
| 20260506153548 | 54 | 163 | 3.0 | 7.0 | 0.00 | 0.00 | 0.00 | 71 | 1009.4 |
| 20260506153046 | 53 | 131 | 2.0 | 5.0 | 0.00 | 0.00 | 0.00 | 71 | 1009.3 |
| 20260506152547 | 53 | 142 | 2.0 | 6.0 | 0.00 | 0.00 | 0.00 | 70 | 1009.3 |
| 20260506152048 | 53 | 122 | 2.0 | 6.0 | 0.00 | 0.00 | 0.00 | 70 | 1009.3 |
| 20260506151546 | 53 | 135 | 2.0 | 5.0 | 0.00 | 0.00 | 0.00 | 70 | 1009.2 |
| 20260506151046 | 53 | 120 | 3.0 | 6.0 | 0.00 | 0.00 | 0.00 | 71 | 1009.3 |
| 20260506145044 | 53 | 63 | 3.0 | 6.0 | 0.00 | 0.00 | 0.00 | 70 | 1009.1 |
| 20260506144042 | 54 | 142 | 1.0 | 6.0 | 0.00 | 0.00 | 0.00 | 70 | 1009.1 |
| 20260506143542 | 54 | 128 | 1.0 | 5.0 | 0.00 | 0.00 | 0.00 | 70 | 1009.1 |
| 20260506142541 | 53 | 223 | 2.0 | 8.0 | 0.00 | 0.00 | 0.00 | 69 | 1009.1 |
| 20260506142041 | 53 | 155 | 1.0 | 8.0 | 0.00 | 0.00 | 0.00 | 69 | 1009.2 |
| 20260506141540 | 53 | 89 | 2.0 | 5.0 | 0.00 | 0.00 | 0.00 | 68 | 1009.2 |
| 20260506140534 | 54 | 13 | 1.0 | 6.0 | 0.00 | 0.00 | 0.00 | 68 | 1009.1 |
| 20260506140034 | 53 | 89 | 2.0 | 4.0 | 0.00 | 0.00 | 0.00 | 70 | 1009.1 |
| 20260506135534 | 53 | 124 | 2.0 | 5.0 | 0.00 | 0.00 | 0.00 | 70 | 1009.1 |
| 20260506135032 | 53 | 135 | 2.0 | 6.0 | 0.00 | 0.00 | 0.00 | 70 | 1009.1 |
| 20260506134533 | 53 | 115 | 2.0 | 7.0 | 0.00 | 0.00 | 0.00 | 70 | 1009.1 |
| 20260506134030 | 52 | 295 | 3.0 | 9.0 | 0.00 | 0.00 | 0.00 | 70 | 1009.1 |
| 20260506133532 | 52 | 168 | 3.0 | 9.0 | 0.00 | 0.00 | 0.00 | 70 | 1009.1 |
| 20260506133030 | 52 | 129 | 4.0 | 9.0 | 0.00 | 0.00 | 0.00 | 70 | 1009.2 |
| 20260506132025 | 52 | 46 | 2.0 | 7.0 | 0.00 | 0.00 | 0.00 | 70 | 1009.2 |
| 20260506131524 | 52 | 124 | 3.0 | 7.0 | 0.00 | 0.00 | 0.00 | 69 | 1009.2 |
| 20260506131021 | 52 | 105 | 3.0 | 8.0 | 0.00 | 0.00 | 0.00 | 70 | 1009.1 |
| 20260506130520 | 52 | 89 | 3.0 | 8.0 | 0.00 | 0.00 | 0.00 | 67 | 1009.2 |
| 20260506130020 | 52 | 89 | 3.0 | 9.0 | 0.00 | 0.00 | 0.00 | 67 | 1009.2 |
| 20260506125517 | 53 | 98 | 3.0 | 9.0 | 0.00 | 0.00 | 0.00 | 67 | 1009.2 |
| 20260506125016 | 53 | 135 | 3.0 | 7.0 | 0.00 | 0.00 | 0.00 | 65 | 1009.1 |
| 20260506124517 | 53 | 128 | 3.0 | 9.0 | 0.00 | 0.00 | 0.00 | 65 | 1009.2 |
| 20260506124010 | 53 | 131 | 3.0 | 9.0 | 0.00 | 0.00 | 0.00 | 63 | 1009.1 |
| 20260506123510 | 53 | 103 | 3.0 | 7.0 | 0.00 | 0.00 | 0.00 | 64 | 1009.1 |
| 20260506123010 | 53 | 117 | 2.0 | 6.0 | 0.00 | 0.00 | 0.00 | 63 | 1009.0 |
| 20260506122506 | 53 | 152 | 3.0 | 7.0 | 0.00 | 0.00 | 0.00 | 64 | 1009.1 |
| 20260506122008 | 53 | 59 | 3.0 | 7.0 | 0.00 | 0.00 | 0.00 | 64 | 1009.1 |
| 20260506121507 | 53 | 40 | 3.0 | 7.0 | 0.00 | 0.00 | 0.00 | 64 | 1009.1 |
| 20260506121004 | 54 | 60 | 3.0 | 7.0 | 0.00 | 0.00 | 0.00 | 64 | 1009.0 |
| 20260506120504 | 54 | 122 | 3.0 | 7.0 | 0.00 | 0.00 | 0.00 | 63 | 1009.0 |
| 20260506115505 | 54 | 89 | 3.0 | 9.0 | 0.00 | 0.00 | 0.00 | 62 | 1008.9 |
| 20260506115004 | 54 | 117 | 3.0 | 8.0 | 0.00 | 0.00 | 0.00 | 63 | 1008.8 |
| 20260506114505 | 54 | 126 | 3.0 | 8.0 | 0.00 | 0.00 | 0.00 | 63 | 1008.8 |
| 20260506114004 | 54 | 51 | 3.0 | 6.0 | 0.00 | 0.00 | 0.00 | 64 | 1008.8 |
| 20260506113006 | 54 | 98 | 3.0 | 10.0 | 0.00 | 0.00 | 0.00 | 61 | 1008.7 |
| 20260506112504 | 54 | 171 | 3.0 | 10.0 | 0.00 | 0.00 | 0.00 | 61 | 1008.8 |
| 20260506112001 | 54 | 28 | 3.0 | 8.0 | 0.00 | 0.00 | 0.00 | 60 | 1008.8 |
| 20260506111500 | 53 | 135 | 3.0 | 7.0 | 0.00 | 0.00 | 0.00 | 61 | 1008.8 |
| 20260506111000 | 53 | 114 | 2.0 | 6.0 | 0.00 | 0.00 | 0.00 | 62 | 1008.7 |
| 20260506110458 | 53 | 135 | 2.0 | 7.0 | 0.00 | 0.00 | 0.00 | 65 | 1008.7 |
| 20260506105958 | 53 | 35 | 2.0 | 7.0 | 0.00 | 0.00 | 0.00 | 64 | 1008.7 |
| 20260506105459 | 53 | 117 | 3.0 | 7.0 | 0.00 | 0.00 | 0.00 | 63 | 1008.8 |
| 20260506104957 | 53 | 117 | 3.0 | 7.0 | 0.00 | 0.00 | 0.00 | 65 | 1008.8 |
| 20260506104456 | 53 | 35 | 3.0 | 10.0 | 0.00 | 0.00 | 0.00 | 63 | 1008.7 |
| 20260506103959 | 53 | 46 | 3.0 | 10.0 | 0.00 | 0.00 | 0.00 | 63 | 1008.7 |
| 20260506103455 | 53 | 63 | 3.0 | 7.0 | 0.00 | 0.00 | 0.00 | 63 | 1008.7 |
| 20260506102954 | 53 | 95 | 3.0 | 6.0 | 0.00 | 0.00 | 0.00 | 64 | 1008.6 |
| 20260506101953 | 53 | 8 | 3.0 | 8.0 | 0.00 | 0.00 | 0.00 | 63 | 1008.5 |
| 20260506101453 | 53 | 68 | 4.0 | 8.0 | 0.00 | 0.00 | 0.00 | 63 | 1008.5 |
| 20260506100952 | 53 | 44 | 4.0 | 8.0 | 0.00 | 0.00 | 0.00 | 63 | 1008.5 |
| 20260506100446 | 52 | 60 | 3.0 | 7.0 | 0.00 | 0.00 | 0.00 | 63 | 1008.5 |
| 20260506095946 | 52 | 74 | 3.0 | 8.0 | 0.00 | 0.00 | 0.00 | 64 | 1008.5 |
| 20260506095446 | 52 | 117 | 3.0 | 8.0 | 0.00 | 0.00 | 0.00 | 65 | 1008.5 |
| 20260506094941 | 52 | 46 | 4.0 | 9.0 | 0.00 | 0.00 | 0.00 | 64 | 1008.5 |
| 20260506094439 | 52 | 76 | 3.0 | 9.0 | 0.00 | 0.00 | 0.00 | 63 | 1008.4 |
| 20260506093941 | 52 | 96 | 2.0 | 6.0 | 0.00 | 0.00 | 0.00 | 66 | 1008.4 |
| 20260506093434 | 52 | 1 | 2.0 | 5.0 | 0.00 | 0.00 | 0.00 | 67 | 1008.4 |
| 20260506092934 | 52 | 102 | 2.0 | 5.0 | 0.00 | 0.00 | 0.00 | 66 | 1008.3 |
| 20260506092432 | 52 | 81 | 2.0 | 5.0 | 0.00 | 0.00 | 0.00 | 67 | 1008.3 |
| 20260506091928 | 52 | 75 | 3.0 | 5.0 | 0.00 | 0.00 | 0.00 | 67 | 1008.4 |
| 20260506091428 | 52 | 51 | 3.0 | 5.0 | 0.00 | 0.00 | 0.00 | 67 | 1008.3 |
| 20260506090928 | 51 | 89 | 3.0 | 5.0 | 0.00 | 0.00 | 0.00 | 67 | 1008.3 |
| 20260506090426 | 51 | 108 | 3.0 | 10.0 | 0.00 | 0.00 | 0.00 | 67 | 1008.3 |
| 20260506085925 | 51 | 54 | 3.0 | 10.0 | 0.00 | 0.00 | 0.00 | 67 | 1008.2 |
| 20260506084923 | 51 | 135 | 3.0 | 8.0 | 0.00 | 0.00 | 0.00 | 67 | 1008.2 |
| 20260506084424 | 51 | 102 | 3.0 | 8.0 | 0.00 | 0.00 | 0.00 | 68 | 1008.1 |
| 20260506083931 | 51 | 20 | 3.0 | 8.0 | 0.00 | 0.00 | 0.00 | 69 | 1008.1 |
| 20260506083421 | 51 | 60 | 3.0 | 8.0 | 0.00 | 0.00 | 0.00 | 70 | 1008.6 |
| 20260506082921 | 51 | 46 | 3.0 | 10.0 | 0.00 | 0.00 | 0.00 | 71 | 1008.0 |
| 20260506082421 | 51 | 46 | 3.0 | 10.0 | 0.00 | 0.00 | 0.00 | 71 | 1007.9 |
| 20260506081916 | 51 | 117 | 3.0 | 9.0 | 0.00 | 0.00 | 0.00 | 73 | 1007.9 |
| 20260506081417 | 51 | 76 | 3.0 | 8.0 | 0.00 | 0.00 | 0.00 | 75 | 1007.9 |
| 20260506080916 | 50 | 21 | 3.0 | 8.0 | 0.00 | 0.00 | 0.00 | 76 | 1007.8 |
| 20260506080425 | 50 | 210 | 3.0 | 8.0 | 0.00 | 0.00 | 0.00 | 75 | 1007.9 |
| 20260506073413 | 50 | 115 | 2.0 | 8.0 | 0.00 | 0.00 | 0.00 | 79 | 1007.8 |
| 20260506072915 | 50 | 53 | 3.0 | 8.0 | 0.00 | 0.00 | 0.00 | 79 | 1007.9 |
| 20260506072414 | 50 | 63 | 3.0 | 8.0 | 0.00 | 0.00 | 0.00 | 81 | 1007.8 |
| 20260506071907 | 50 | 351 | 3.0 | 8.0 | 0.00 | 0.00 | 0.00 | 81 | 1007.8 |
| 20260506071421 | 50 | 102 | 3.0 | 7.0 | 0.00 | 0.00 | 0.00 | 82 | 1007.7 |
| 20260506070905 | 50 | 157 | 2.0 | 7.0 | 0.00 | 0.00 | 0.00 | 82 | 1007.7 |
| 20260506070406 | 50 | 336 | 3.0 | 10.0 | 0.00 | 0.00 | 0.00 | 83 | 1007.7 |
| 20260506062359 | 49 | 20 | 2.0 | 5.0 | 0.00 | 0.00 | 0.00 | 83 | 1007.7 |
| 20260506061900 | 49 | 46 | 3.0 | 11.0 | 0.00 | 0.00 | 0.00 | 82 | 1007.7 |
| 20260506060359 | 49 | 11 | 3.0 | 7.0 | 0.00 | 0.00 | 0.00 | 81 | 1007.6 |